Time,TemperatureF,DewpointF,PressureIn,WindDirection,WindDirectionDegrees,WindSpeedMPH,WindSpeedGustMPH,Humidity,HourlyPrecipIn,Conditions,Clouds,dailyrainin,SoftwareType,DateUTC
2013-01-15 00:02:00,8.0,5.0,30.12,South,176,0.0,-999.0,88,-99.99,,,-99.99,,2013-01-15 07:02:00,
2013-01-15 00:12:00,8.0,5.0,30.12,South,176,0.0,-999.0,88,-99.99,,,-99.99,,2013-01-15 07:12:00,
2013-01-15 00:22:00,9.0,6.0,30.11,South,176,0.0,-999.0,88,-99.99,,,-99.99,,2013-01-15 07:22:00,
2013-01-15 00:33:00,10.0,7.0,30.11,South,176,0.0,-999.0,88,-99.99,,,-99.99,,2013-01-15 07:33:00,
2013-01-15 00:42:00,10.0,7.0,30.11,South,176,0.0,-999.0,88,-99.99,,,-99.99,,2013-01-15 07:42:00,
2013-01-15 00:52:00,10.0,7.0,30.10,South,176,0.0,-999.0,88,-99.99,,,-99.99,,2013-01-15 07:52:00,
2013-01-15 01:02:00,10.0,7.0,30.10,South,176,0.0,-999.0,88,-99.99,,,-99.99,,2013-01-15 08:02:00,
2013-01-15 01:12:00,10.0,7.0,30.10,South,176,0.0,-999.0,88,-99.99,,,-99.99,,2013-01-15 08:12:00,
2013-01-15 01:22:00,11.0,8.0,30.10,South,176,0.0,-999.0,87,-99.99,,,-99.99,,2013-01-15 08:22:00,
2013-01-15 01:33:00,12.0,9.0,30.10,South,176,0.0,-999.0,87,-99.99,,,-99.99,,2013-01-15 08:33:00,
2013-01-15 01:42:00,12.0,9.0,30.10,South,176,0.0,-999.0,87,-99.99,,,-99.99,,2013-01-15 08:42:00,
2013-01-15 01:52:00,12.0,9.0,30.10,South,176,0.0,-999.0,87,-99.99,,,-99.99,,2013-01-15 08:52:00,
2013-01-15 02:02:00,11.0,7.0,30.08,South,176,0.0,-999.0,84,-99.99,,,-99.99,,2013-01-15 09:02:00,
2013-01-15 02:12:00,11.0,7.0,30.08,South,176,0.0,-999.0,84,-99.99,,,-99.99,,2013-01-15 09:12:00,
2013-01-15 02:22:00,11.0,7.0,30.08,South,176,0.0,-999.0,84,-99.99,,,-99.99,,2013-01-15 09:22:00,
2013-01-15 02:33:00,11.0,7.0,30.09,South,176,0.0,-999.0,85,-99.99,,,-99.99,,2013-01-15 09:33:00,
2013-01-15 02:42:00,11.0,7.0,30.09,South,176,0.0,-999.0,85,-99.99,,,-99.99,,2013-01-15 09:42:00,
2013-01-15 02:52:00,11.0,8.0,30.08,South,176,0.0,-999.0,86,-99.99,,,-99.99,,2013-01-15 09:52:00,
2013-01-15 03:02:00,11.0,8.0,30.07,South,176,0.0,-999.0,86,-99.99,,,-99.99,,2013-01-15 10:02:00,
2013-01-15 03:12:00,11.0,8.0,30.07,South,176,0.0,-999.0,86,-99.99,,,-99.99,,2013-01-15 10:12:00,
2013-01-15 03:22:00,11.0,8.0,30.06,South,176,0.0,-999.0,86,-99.99,,,-99.99,,2013-01-15 10:22:00,
2013-01-15 03:32:00,11.0,8.0,30.06,South,176,0.0,-999.0,87,-99.99,,,-99.99,,2013-01-15 10:32:00,
2013-01-15 03:42:00,11.0,8.0,30.06,South,176,0.0,-999.0,87,-99.99,,,-99.99,,2013-01-15 10:42:00,
2013-01-15 03:52:00,12.0,9.0,30.05,South,176,0.0,-999.0,88,-99.99,,,-99.99,,2013-01-15 10:52:00,
2013-01-15 04:02:00,14.0,11.0,30.05,South,178,0.0,-999.0,88,-99.99,,,-99.99,,2013-01-15 11:02:00,
2013-01-15 04:12:00,14.0,11.0,30.05,South,178,0.0,-999.0,88,-99.99,,,-99.99,,2013-01-15 11:12:00,
2013-01-15 04:22:00,15.0,12.0,30.04,SSE,151,0.0,-999.0,86,-99.99,,,-99.99,,2013-01-15 11:22:00,
2013-01-15 04:33:00,15.0,11.0,30.04,SSE,163,1.0,-999.0,85,-99.99,,,-99.99,,2013-01-15 11:33:00,
2013-01-15 04:42:00,15.0,11.0,30.04,SSE,163,1.0,-999.0,85,-99.99,,,-99.99,,2013-01-15 11:42:00,
2013-01-15 04:52:00,16.0,12.0,30.03,SSE,165,1.0,-999.0,85,-99.99,,,-99.99,,2013-01-15 11:52:00,
2013-01-15 05:03:00,16.0,12.0,30.03,SSE,166,0.0,-999.0,85,-99.99,,,-99.99,,2013-01-15 12:03:00,
2013-01-15 05:12:00,16.0,12.0,30.03,SSE,166,0.0,-999.0,85,-99.99,,,-99.99,,2013-01-15 12:12:00,
2013-01-15 05:22:00,17.0,13.0,30.03,SSE,159,0.0,-999.0,84,-99.99,,,-99.99,,2013-01-15 12:22:00,
2013-01-15 05:33:00,17.0,13.0,30.01,SSE,166,2.0,-999.0,85,-99.99,,,-99.99,,2013-01-15 12:33:00,
2013-01-15 05:42:00,17.0,13.0,30.01,SSE,166,2.0,-999.0,85,-99.99,,,-99.99,,2013-01-15 12:42:00,
2013-01-15 05:53:00,18.0,14.0,30.01,SSE,166,1.0,-999.0,85,-99.99,,,-99.99,,2013-01-15 12:53:00,
2013-01-15 06:03:00,18.0,15.0,30.01,SSE,166,0.0,-999.0,86,-99.99,,,-99.99,,2013-01-15 13:03:00,
2013-01-15 06:12:00,18.0,15.0,30.01,SSE,166,0.0,-999.0,86,-99.99,,,-99.99,,2013-01-15 13:12:00,
2013-01-15 06:23:00,19.0,16.0,30.01,SSE,167,0.0,-999.0,87,-99.99,,,-99.99,,2013-01-15 13:23:00,
2013-01-15 06:33:00,19.0,16.0,30.01,SSE,167,0.0,-999.0,87,-99.99,,,-99.99,,2013-01-15 13:33:00,
2013-01-15 06:43:00,19.0,16.0,30.01,SSE,167,0.0,-999.0,87,-99.99,,,-99.99,,2013-01-15 13:43:00,
2013-01-15 06:53:00,20.0,17.0,30.01,SSE,167,0.0,-999.0,88,-99.99,,,-99.99,,2013-01-15 13:53:00,
2013-01-15 07:02:00,20.0,17.0,30.01,South,169,0.0,-999.0,88,-99.99,,,-99.99,,2013-01-15 14:02:00,
2013-01-15 07:12:00,20.0,17.0,30.01,South,169,0.0,-999.0,88,-99.99,,,-99.99,,2013-01-15 14:12:00,
2013-01-15 07:23:00,21.0,18.0,30.01,SSE,161,1.0,-999.0,87,-99.99,,,-99.99,,2013-01-15 14:23:00,
2013-01-15 07:33:00,21.0,18.0,29.99,SSE,159,2.0,-999.0,88,-99.99,,,-99.99,,2013-01-15 14:33:00,
2013-01-15 07:43:00,21.0,18.0,29.99,SSE,159,2.0,-999.0,88,-99.99,,,-99.99,,2013-01-15 14:43:00,
2013-01-15 07:53:00,22.0,19.0,30.00,SSE,157,2.0,-999.0,88,-99.99,,,-99.99,,2013-01-15 14:53:00,
2013-01-15 08:03:00,22.0,19.0,30.00,SSE,168,2.0,-999.0,88,-99.99,,,-99.99,,2013-01-15 15:03:00,
2013-01-15 08:12:00,22.0,19.0,30.00,SSE,168,2.0,-999.0,88,-99.99,,,-99.99,,2013-01-15 15:12:00,
2013-01-15 08:23:00,23.0,20.0,30.00,SSE,151,0.0,-999.0,89,-99.99,,,-99.99,,2013-01-15 15:23:00,
2013-01-15 08:33:00,23.0,20.0,30.00,SSE,159,0.0,-999.0,89,-99.99,,,-99.99,,2013-01-15 15:33:00,
2013-01-15 08:43:00,23.0,20.0,30.00,SSE,159,0.0,-999.0,89,-99.99,,,-99.99,,2013-01-15 15:43:00,
2013-01-15 08:53:00,23.0,20.0,30.00,SSE,159,0.0,-999.0,89,-99.99,,,-99.99,,2013-01-15 15:53:00,
2013-01-15 09:03:00,25.0,22.0,30.00,SSW,206,1.0,-999.0,90,-99.99,,,-99.99,,2013-01-15 16:03:00,
2013-01-15 09:12:00,25.0,22.0,30.00,SSW,206,1.0,-999.0,90,-99.99,,,-99.99,,2013-01-15 16:12:00,
2013-01-15 09:22:00,28.0,26.0,29.99,SW,216,2.0,-999.0,92,-99.99,,,-99.99,,2013-01-15 16:22:00,
2013-01-15 09:33:00,28.0,26.0,29.99,SW,216,2.0,-999.0,92,-99.99,,,-99.99,,2013-01-15 16:33:00,
2013-01-15 09:42:00,28.0,26.0,29.99,SW,216,2.0,-999.0,92,-99.99,,,-99.99,,2013-01-15 16:42:00,
2013-01-15 09:53:00,29.0,27.0,29.99,SW,217,3.0,-999.0,91,-99.99,,,-99.99,,2013-01-15 16:53:00,
2013-01-15 10:03:00,31.0,28.0,29.98,SW,217,2.0,-999.0,90,-99.99,,,-99.99,,2013-01-15 17:03:00,
2013-01-15 10:12:00,31.0,28.0,29.98,SW,217,2.0,-999.0,90,-99.99,,,-99.99,,2013-01-15 17:12:00,
2013-01-15 10:22:00,32.0,29.0,29.98,SW,218,5.0,-999.0,89,-99.99,,,-99.99,,2013-01-15 17:22:00,
2013-01-15 10:33:00,32.0,29.0,29.97,South,190,2.0,-999.0,90,-99.99,,,-99.99,,2013-01-15 17:33:00,
2013-01-15 10:42:00,32.0,29.0,29.97,South,190,2.0,-999.0,90,-99.99,,,-99.99,,2013-01-15 17:42:00,
2013-01-15 10:53:00,33.0,30.0,29.96,SW,217,6.0,-999.0,90,-99.99,,,-99.99,,2013-01-15 17:53:00,
2013-01-15 11:03:00,33.0,30.0,29.96,SW,215,8.0,-999.0,90,-99.99,,,-99.99,,2013-01-15 18:03:00,
2013-01-15 11:13:00,33.0,30.0,29.96,SW,215,8.0,-999.0,90,-99.99,,,-99.99,,2013-01-15 18:13:00,
2013-01-15 11:23:00,34.0,31.0,29.95,SW,215,7.0,-999.0,90,-99.99,,,-99.99,,2013-01-15 18:23:00,
2013-01-15 11:33:00,34.0,31.0,29.94,SW,218,10.0,-999.0,90,-99.99,,,-99.99,,2013-01-15 18:33:00,
2013-01-15 11:42:00,35.0,32.0,29.92,SW,222,13.0,-999.0,89,-99.99,,,-99.99,,2013-01-15 18:42:00,
2013-01-15 11:43:00,34.0,31.0,29.94,SW,218,10.0,-999.0,90,-99.99,,,-99.99,,2013-01-15 18:43:00,
2013-01-15 11:53:00,34.0,31.0,29.94,SW,218,10.0,-999.0,90,-99.99,,,-99.99,,2013-01-15 18:53:00,
2013-01-15 12:03:00,35.0,32.0,29.92,SW,222,13.0,-999.0,89,-99.99,,,-99.99,,2013-01-15 19:03:00,
2013-01-15 12:12:00,35.0,32.0,29.92,SW,222,13.0,-999.0,89,-99.99,,,-99.99,,2013-01-15 19:12:00,
2013-01-15 12:23:00,35.0,32.0,29.92,SW,222,13.0,-999.0,89,-99.99,,,-99.99,,2013-01-15 19:23:00,
2013-01-15 12:33:00,35.0,32.0,29.92,SW,222,13.0,-999.0,89,-99.99,,,-99.99,,2013-01-15 19:33:00,
2013-01-15 12:53:00,34.0,31.0,29.90,SW,228,16.0,-999.0,90,-99.99,,,-99.99,,2013-01-15 19:53:00,
2013-01-15 13:03:00,34.0,32.0,29.89,SW,229,13.0,-999.0,91,-99.99,,,-99.99,,2013-01-15 20:03:00,
2013-01-15 13:12:00,34.0,32.0,29.89,SW,229,13.0,-999.0,91,-99.99,,,-99.99,,2013-01-15 20:12:00,
2013-01-15 13:23:00,34.0,32.0,29.89,SW,229,13.0,-999.0,91,-99.99,,,-99.99,,2013-01-15 20:23:00,
2013-01-15 13:33:00,34.0,32.0,29.88,SW,229,13.0,-999.0,91,-99.99,,,-99.99,,2013-01-15 20:33:00,
2013-01-15 13:43:00,34.0,32.0,29.88,SW,229,13.0,-999.0,91,-99.99,,,-99.99,,2013-01-15 20:43:00,
2013-01-15 13:53:00,34.0,32.0,29.87,SW,231,16.0,-999.0,91,-99.99,,,-99.99,,2013-01-15 20:53:00,
2013-01-15 14:03:00,35.0,33.0,29.86,SW,224,15.0,-999.0,91,-99.99,,,-99.99,,2013-01-15 21:03:00,
2013-01-15 14:12:00,35.0,33.0,29.86,SW,224,15.0,-999.0,91,-99.99,,,-99.99,,2013-01-15 21:12:00,
2013-01-15 14:23:00,35.0,32.0,29.86,SW,220,15.0,-999.0,89,-99.99,,,-99.99,,2013-01-15 21:23:00,
2013-01-15 14:33:00,35.0,32.0,29.86,SW,230,16.0,-999.0,89,-99.99,,,-99.99,,2013-01-15 21:33:00,
2013-01-15 14:43:00,35.0,32.0,29.86,SW,230,16.0,-999.0,89,-99.99,,,-99.99,,2013-01-15 21:43:00,
2013-01-15 14:52:00,35.0,32.0,29.86,SW,224,19.0,-999.0,88,-99.99,,,-99.99,,2013-01-15 21:52:00,
2013-01-15 15:03:00,35.0,32.0,29.86,SW,233,18.0,-999.0,88,-99.99,,,-99.99,,2013-01-15 22:03:00,
2013-01-15 15:12:00,35.0,32.0,29.86,SW,233,18.0,-999.0,88,-99.99,,,-99.99,,2013-01-15 22:12:00,
2013-01-15 15:23:00,35.0,32.0,29.86,SW,229,17.0,-999.0,88,-99.99,,,-99.99,,2013-01-15 22:23:00,
2013-01-15 15:33:00,36.0,32.0,29.85,SW,221,20.0,-999.0,85,-99.99,,,-99.99,,2013-01-15 22:33:00,
2013-01-15 15:43:00,36.0,32.0,29.85,SW,221,20.0,-999.0,85,-99.99,,,-99.99,,2013-01-15 22:43:00,
2013-01-15 15:52:00,36.0,31.0,29.84,WSW,242,19.0,-999.0,83,-99.99,,,-99.99,,2013-01-15 22:52:00,
2013-01-15 16:02:00,37.0,31.0,29.83,WSW,239,21.0,-999.0,80,-99.99,,,-99.99,,2013-01-15 23:02:00,
2013-01-15 16:13:00,37.0,31.0,29.83,WSW,239,21.0,-999.0,80,-99.99,,,-99.99,,2013-01-15 23:13:00,
2013-01-15 16:22:00,37.0,31.0,29.83,SW,234,23.0,-999.0,79,-99.99,,,-99.99,,2013-01-15 23:22:00,
2013-01-15 16:33:00,38.0,31.0,29.83,SW,234,23.0,-999.0,77,-99.99,,,-99.99,,2013-01-15 23:33:00,
2013-01-15 16:42:00,38.0,31.0,29.83,SW,234,23.0,-999.0,77,-99.99,,,-99.99,,2013-01-15 23:42:00,
2013-01-15 16:53:00,38.0,31.0,29.83,WSW,240,25.0,-999.0,77,-99.99,,,-99.99,,2013-01-15 23:53:00,
2013-01-15 17:02:00,38.0,31.0,29.83,SW,231,24.0,-999.0,77,-99.99,,,-99.99,,2013-01-16 00:02:00,
2013-01-15 17:12:00,38.0,31.0,29.83,SW,231,24.0,-999.0,77,-99.99,,,-99.99,,2013-01-16 00:12:00,
2013-01-15 17:22:00,38.0,31.0,29.85,WSW,248,19.0,-999.0,77,-99.99,,,-99.99,,2013-01-16 00:22:00,
2013-01-15 17:33:00,38.0,32.0,29.85,WSW,241,17.0,-999.0,78,-99.99,,,-99.99,,2013-01-16 00:33:00,
2013-01-15 17:43:00,38.0,32.0,29.85,WSW,241,17.0,-999.0,78,-99.99,,,-99.99,,2013-01-16 00:43:00,
2013-01-15 17:53:00,38.0,32.0,29.85,WSW,248,20.0,-999.0,78,-99.99,,,-99.99,,2013-01-16 00:53:00,
2013-01-15 18:02:00,38.0,32.0,29.85,SW,236,16.0,-999.0,79,-99.99,,,-99.99,,2013-01-16 01:02:00,
2013-01-15 18:12:00,38.0,32.0,29.85,SW,236,16.0,-999.0,79,-99.99,,,-99.99,,2013-01-16 01:12:00,
2013-01-15 18:22:00,38.0,32.0,29.86,SW,235,17.0,-999.0,78,-99.99,,,-99.99,,2013-01-16 01:22:00,
2013-01-15 18:33:00,39.0,32.0,29.87,WSW,240,18.0,-999.0,77,-99.99,,,-99.99,,2013-01-16 01:33:00,
2013-01-15 18:42:00,39.0,32.0,29.87,WSW,240,18.0,-999.0,77,-99.99,,,-99.99,,2013-01-16 01:42:00,
2013-01-15 18:52:00,38.0,31.0,29.87,WSW,245,18.0,-999.0,77,-99.99,,,-99.99,,2013-01-16 01:52:00,
2013-01-15 19:03:00,38.0,32.0,29.87,SW,221,17.0,-999.0,78,-99.99,,,-99.99,,2013-01-16 02:03:00,
2013-01-15 19:12:00,38.0,32.0,29.87,SW,221,17.0,-999.0,78,-99.99,,,-99.99,,2013-01-16 02:12:00,
2013-01-15 19:22:00,38.0,32.0,29.87,WSW,239,14.0,-999.0,79,-99.99,,,-99.99,,2013-01-16 02:22:00,
2013-01-15 19:32:00,38.0,32.0,29.87,SW,234,14.0,-999.0,79,-99.99,,,-99.99,,2013-01-16 02:32:00,
2013-01-15 19:42:00,38.0,32.0,29.87,SW,234,14.0,-999.0,79,-99.99,,,-99.99,,2013-01-16 02:42:00,
2013-01-15 19:52:00,37.0,31.0,29.87,SW,228,14.0,-999.0,80,-99.99,,,-99.99,,2013-01-16 02:52:00,
2013-01-15 20:03:00,38.0,32.0,29.87,WSW,237,15.0,-999.0,78,-99.99,,,-99.99,,2013-01-16 03:03:00,
2013-01-15 20:12:00,38.0,32.0,29.87,WSW,237,15.0,-999.0,78,-99.99,,,-99.99,,2013-01-16 03:12:00,
2013-01-15 20:22:00,38.0,32.0,29.87,WSW,237,15.0,-999.0,78,-99.99,,,-99.99,,2013-01-16 03:22:00,
2013-01-15 20:32:00,38.0,31.0,29.88,SW,232,12.0,-999.0,77,-99.99,,,-99.99,,2013-01-16 03:32:00,
2013-01-15 20:43:00,38.0,31.0,29.88,SW,232,12.0,-999.0,77,-99.99,,,-99.99,,2013-01-16 03:43:00,
2013-01-15 20:53:00,38.0,32.0,29.88,WSW,250,10.0,-999.0,78,-99.99,,,-99.99,,2013-01-16 03:53:00,
2013-01-15 21:02:00,38.0,31.0,29.89,West,261,11.0,-999.0,77,-99.99,,,-99.99,,2013-01-16 04:02:00,
2013-01-15 21:12:00,38.0,31.0,29.89,West,261,11.0,-999.0,77,-99.99,,,-99.99,,2013-01-16 04:12:00,
2013-01-15 21:22:00,38.0,31.0,29.89,West,267,12.0,-999.0,77,-99.99,,,-99.99,,2013-01-16 04:22:00,
2013-01-15 21:32:00,38.0,31.0,29.89,WSW,253,13.0,-999.0,77,-99.99,,,-99.99,,2013-01-16 04:32:00,
2013-01-15 21:42:00,38.0,31.0,29.89,WSW,253,13.0,-999.0,77,-99.99,,,-99.99,,2013-01-16 04:42:00,
2013-01-15 21:52:00,38.0,31.0,29.88,WSW,243,14.0,-999.0,76,-99.99,,,-99.99,,2013-01-16 04:52:00,
2013-01-15 22:03:00,39.0,31.0,29.88,WSW,249,16.0,-999.0,74,-99.99,,,-99.99,,2013-01-16 05:03:00,
2013-01-15 22:12:00,39.0,31.0,29.88,WSW,249,16.0,-999.0,74,-99.99,,,-99.99,,2013-01-16 05:12:00,
2013-01-15 22:22:00,39.0,31.0,29.88,WSW,244,16.0,-999.0,74,-99.99,,,-99.99,,2013-01-16 05:22:00,
2013-01-15 22:32:00,39.0,31.0,29.88,WSW,248,16.0,-999.0,74,-99.99,,,-99.99,,2013-01-16 05:32:00,
2013-01-15 22:42:00,39.0,31.0,29.88,WSW,248,16.0,-999.0,74,-99.99,,,-99.99,,2013-01-16 05:42:00,
2013-01-15 22:53:00,39.0,32.0,29.88,SW,234,17.0,-999.0,75,-99.99,,,-99.99,,2013-01-16 05:53:00,
2013-01-15 23:02:00,39.0,32.0,29.88,SW,234,17.0,-999.0,75,-99.99,,,-99.99,,2013-01-16 06:02:00,
2013-01-15 23:12:00,39.0,32.0,29.88,SW,234,17.0,-999.0,75,-99.99,,,-99.99,,2013-01-16 06:12:00,
2013-01-15 23:22:00,39.0,32.0,29.89,SW,228,13.0,-999.0,75,-99.99,,,-99.99,,2013-01-16 06:22:00,
2013-01-15 23:32:00,39.0,32.0,29.89,SW,230,17.0,-999.0,75,-99.99,,,-99.99,,2013-01-16 06:32:00,
2013-01-15 23:43:00,39.0,32.0,29.89,SW,230,17.0,-999.0,75,-99.99,,,-99.99,,2013-01-16 06:43:00,
2013-01-15 23:52:00,38.0,31.0,29.88,SW,226,14.0,-999.0,77,-99.99,,,-99.99,,2013-01-16 06:52:00,